Location: ???????????
(55.5758°N, 38.4970°E)
Time: 21:29:32
(UTC+00:00)

Meteor 2-21 - Pass Details

Date: 15 November 2025
Orbit: 933 x 966 km, 82.5° (Epoch: 12 December)

Event Time Altitude Azimuth Distance (km) Brightness Sun altitude
Exits shadow 01:50:57 69° 270° (W) 1,005 4.3 -26.4°
Maximum altitude 01:51:10 69° 285° (WNW) 1,001 4.3 -26.4°
Drops below altitude 10° 01:57:14 10° 9° (N) 2,658 6.9 -25.5°
Sets 01:59:44 0° 12° (NNE) 3,605 7.7 -25.2°
